Wetbulb
59.00 59.21 59.42 59.66 60.03 59.91 60.13 60.41 60.47 60.74 61.04 61.15 61.21 61.21 60.95 60.67 59.18 62.40 56.04 62.46 63.90 68.39 66.63 58.80 59.98 61.79 62.08 60.46 61.68 61.16 54.80 53.15 55.74 55.56 56.59 60.04 57.81 59.10 61.76 60.97 63.00 65.12 66.41 68.10 70.43
58.80 59.06 59.29 59.46 59.90 59.82 59.93 60.06 60.21 60.43 60.52 60.59 60.97 60.74 60.35 60.30 59.39 58.18 66.77 69.99 69.11 69.49 58.30 56.55 56.59 60.09 58.85 59.56 59.71 57.16 54.32 54.70 57.09 59.12 58.09 59.45 59.04 58.84 58.51 58.95 60.63 63.37 66.57 69.12 69.48
58.50 58.67 59.05 59.60 59.97 59.82 59.60 59.68 59.91 60.25 60.43 60.45 60.43 60.19 59.83 59.63 59.01 59.76 69.39 70.06 68.11 66.77 59.99 60.18 58.83 59.05 57.98 59.51 58.58 56.92 53.44 55.82 56.27 57.42 59.81 59.13 59.21 60.55 58.47 57.10 60.41 61.75 64.65 67.67 68.65
58.13 58.37 58.79 59.66 59.86 59.32 59.36 59.45 59.92 60.41 60.37 60.04 59.66 59.80 60.21 60.51 52.87 59.22 71.56 69.79 69.85 62.57 60.46 59.02 58.02 56.79 57.09 56.51 57.48 53.77 56.03 55.95 57.19 57.21 59.27 58.39 60.71 58.87 60.53 60.08 62.10 64.98 66.34 67.07 67.49
57.87 58.03 58.48 59.17 59.03 58.90 58.81 58.99 59.22 59.52 59.21 59.24 59.59 60.17 59.86 58.92 57.64 62.76 71.20 69.40 62.39 60.20 59.16 58.77 57.55 58.31 55.96 56.47 56.21 54.29 55.58 56.22 57.11 57.02 58.17 59.72 57.62 58.77 59.24 61.99 63.08 65.14 66.32 66.24 66.28
57.89 57.97 58.34 58.62 58.51 58.49 58.22 58.02 57.94 58.11 58.37 59.12 60.00 59.55 61.24 56.08 61.95 62.63 62.38 62.10 61.04 60.85 60.26 60.55 58.94 59.47 57.03 55.50 54.92 56.57 55.44 55.41 56.65 56.99 58.59 56.57 57.50 58.12 61.18 63.28 61.39 64.34 64.58 65.42 66.10
57.94 58.06 58.26 58.15 58.16 58.14 58.03 57.59 57.39 57.84 58.80 60.00 61.30 61.28 58.75 58.77 62.51 63.21 62.57 62.08 62.51 61.62 59.47 60.69 60.67 58.29 58.49 55.43 57.57 56.23 52.87 54.73 55.61 56.59 56.78 58.38 54.60 56.72 59.70 61.80 61.00 63.01 63.68 64.56 65.64
57.85 58.07 57.93 58.04 58.13 58.21 58.05 57.73 57.69 58.42 59.57 60.70 61.57 60.10 58.74 61.96 63.36 61.90 62.62 61.40 62.16 62.28 61.15 61.58 61.29 58.93 57.85 58.57 56.09 53.36 53.61 50.39 55.01 56.70 57.46 57.46 51.20 56.89 60.88 62.63 59.29 62.35 63.46 63.22 66.71
57.63 57.77 57.55 57.88 58.06 58.05 57.60 57.16 58.06 59.32 60.83 61.70 61.31 60.39 58.09 64.13 59.38 61.97 62.43 60.16 60.67 61.04 61.62 61.12 59.62 57.11 57.02 53.10 51.50 52.99 49.64 50.99 52.94 56.37 54.84 56.11 52.75 58.30 61.51 61.72 61.29 61.14 62.47 63.99 64.90
57.38 57.34 57.12 57.30 57.71 57.48 56.61 56.95 59.39 57.48 62.58 61.25 60.68 57.37 59.57 56.21 59.71 60.61 62.20 60.84 58.83 58.83 57.84 57.66 56.46 54.02 53.87 51.97 47.32 50.07 50.46 51.41 50.64 54.17 54.28 52.56 52.44 55.27 60.01 60.78 59.98 59.94 60.58 62.64 63.53
56.90 57.05 56.75 57.15 57.42 56.93 56.40 59.44 56.74 57.14 58.16 56.34 56.49 57.32 57.30 60.03 61.08 58.36 60.54 58.99 58.55 57.18 53.33 56.21 52.70 50.60 53.37 54.44 53.42 52.28 51.41 50.73 53.07 54.96 53.31 52.65 53.09 54.59 56.90 57.68 56.84 57.76 59.50 61.12 65.50
56.22 56.33 56.92 57.37 57.28 57.05 58.02 59.06 60.48 61.59 54.62 58.44 58.31 58.31 59.51 59.63 55.82 58.29 60.77 56.23 56.36 53.17 55.09 54.08 50.63 55.31 55.43 54.20 52.76 52.54 51.57 51.49 53.81 55.09 54.05 53.26 52.75 54.87 56.06 56.80 57.39 57.52 58.86 61.27 65.37
55.71 55.98 56.42 57.12 57.00 56.63 58.97 62.21 64.04 62.66 56.10 57.10 56.94 57.11 57.57 58.38 56.68 57.08 59.22 58.20 55.70 54.00 54.01 51.71 53.85 55.63 53.77 52.53 52.36 52.24 51.95 51.62 50.34 52.30 53.41 52.38 50.93 53.41 57.27 58.22 58.54 59.52 61.64 63.21 64.91
55.16 55.69 56.22 56.53 56.21 62.71 62.27 63.45 63.02 62.77 52.72 53.21 53.78 56.81 58.30 58.11 54.98 59.96 59.84 58.18 55.64 53.35 53.87 53.38 55.94 53.81 52.81 52.29 53.36 50.22 53.73 52.19 50.44 49.29 45.57 51.96 44.20 52.36 54.75 54.47 57.30 58.74 59.71 61.26 62.81
54.69 55.49 56.03 53.49 60.37 61.37 62.28 63.06 63.38 62.04 45.32 53.54 54.07 60.57 58.38 55.42 56.85 57.13 60.17 58.10 54.80 54.33 54.51 52.96 53.31 52.59 51.73 53.14 54.09 51.42 54.00 52.86 52.16 50.14 49.97 49.60 46.68 50.94 53.91 53.09 54.00 57.05 59.38 60.90 62.70
54.16 54.73 55.56 58.11 59.80 63.90 63.43 63.06 61.05 50.27 44.99 51.09 54.77 53.73 53.55 54.71 55.29 57.86 57.03 58.93 59.73 55.33 54.67 54.97 57.22 54.84 54.36 55.07 54.52 56.21 54.30 52.77 52.05 50.81 45.24 49.26 47.53 49.15 51.07 52.29 53.88 56.89 57.88 59.71 61.30
53.75 53.92 55.39 61.42 61.29 62.98 62.64 59.55 50.08 45.23 54.01 51.08 51.13 52.72 52.08 52.34 53.74 55.00 54.38 54.34 52.72 50.44 50.85 53.01 52.93 55.37 55.59 53.47 56.21 54.56 51.86 45.21 44.82 44.66 43.78 50.97 47.63 49.87 53.43 53.97 54.42 55.11 56.87 58.58 59.73
52.31 51.10 58.19 58.50 63.49 63.17 60.22 54.91 47.12 50.52 50.86 54.29 53.01 52.24 50.69 53.50 53.61 53.98 54.09 52.77 55.44 55.19 53.11 50.43 47.62 53.76 56.17 53.86 51.58 52.12 51.19 46.70 39.77 40.18 42.99 49.48 45.30 49.46 54.66 55.86 55.97 56.42 57.26 57.89 58.92
51.25 63.24 60.72 62.23 62.00 62.32 57.38 49.91 50.07 52.44 53.01 53.69 53.45 51.07 51.04 53.08 52.81 53.36 53.32 53.65 55.02 54.68 51.38 51.21 50.36 55.59 55.37 55.55 54.21 51.72 49.47 52.45 46.99 48.85 45.28 47.69 49.76 52.99 54.94 54.88 55.52 55.64 56.70 57.39 58.53
59.18 60.46 60.95 62.83 63.60 61.42 55.31 49.53 53.75 54.87 56.47 55.36 51.68 52.43 49.87 51.18 51.20 51.85 52.50 55.06 54.35 56.13 57.41 54.33 49.45 54.91 55.08 56.52 55.82 53.81 54.36 47.37 48.74 42.24 40.02 44.92 46.74 47.49 52.09 53.19 54.86 55.18 55.77 56.83 59.10
61.00 57.79 64.31 63.86 63.26 57.76 51.29 52.48 54.03 55.14 56.03 53.64 52.96 52.44 53.14 52.32 52.51 51.56 51.78 54.96 55.93 55.61 55.94 55.29 54.18 52.38 55.34 53.84 52.33 52.17 49.78 51.26 50.96 48.43 42.89 41.42 45.41 54.18 53.22 54.04 54.30 55.21 55.69 56.71 57.55
59.61 54.09 64.54 63.45 53.74 53.95 52.07 54.41 51.53 53.72 55.83 55.63 56.54 56.76 54.88 54.86 53.59 52.61 53.48 56.07 58.85 56.80 52.97 57.54 55.63 50.04 51.39 55.85 56.31 54.15 51.00 51.03 45.99 44.95 47.60 46.09 45.55 56.19 55.31 55.41 56.22 55.91 56.28 56.69 57.25
56.49 56.31 64.11 61.98 50.22 51.47 55.02 55.04 55.64 54.58 54.21 54.58 54.28 56.36 56.99 55.45 53.07 54.54 56.31 58.08 58.38 57.11 56.84 58.80 53.64 48.10 49.62 52.90 54.94 52.53 51.95 51.63 51.91 51.47 46.14 43.80 46.33 55.80 55.97 55.96 56.25 55.91 56.20 56.81 57.43
56.31 52.07 56.98 59.47 57.57 55.44 55.21 53.86 54.10 56.44 55.31 55.56 55.89 57.60 56.28 55.12 56.83 54.99 55.50 56.62 58.51 59.05 57.54 60.05 54.99 51.35 46.54 49.26 52.11 49.52 50.71 51.44 51.50 48.12 46.55 46.92 48.69 52.23 53.77 54.39 54.78 55.72 56.71 56.59 56.87
55.38 54.00 57.73 51.99 53.82 54.89 56.57 56.27 53.38 53.20 55.97 55.67 54.84 55.69 55.53 53.73 54.09 53.73 56.03 55.54 56.74 54.59 56.04 58.46 51.78 52.48 51.93 52.14 51.95 50.53 49.85 50.41 48.77 49.09 46.88 48.50 48.89 51.75 54.20 54.45 54.83 55.91 56.34 56.05 56.14
54.91 55.04 58.62 55.50 57.76 55.93 53.10 54.06 54.14 54.65 55.35 52.97 53.48 54.42 55.28 54.58 55.18 53.69 55.86 56.50 55.01 56.02 55.96 58.71 51.34 51.74 49.13 51.71 51.03 49.29 50.88 50.89 49.97 49.70 49.64 50.10 49.80 55.27 55.96 55.56 55.10 55.78 55.81 55.25 55.33
59.12 59.84 56.73 54.43 54.17 53.46 53.89 54.54 54.34 56.86 56.91 56.41 56.69 54.89 54.65 55.95 59.19 59.72 60.66 60.33 59.74 57.25 56.37 55.94 53.68 50.77 46.44 50.80 50.08 46.51 49.91 50.78 50.87 52.18 51.50 48.14 52.16 55.24 54.18 54.55 55.03 55.12 55.58 55.38 55.63
MSLP
1017.18 1017.07 1017.02 1016.95 1016.84 1016.74 1016.58 1016.39 1016.05 1015.79 1015.49 1015.17 1014.90 1014.64 1014.30 1013.92 1012.75 1012.26 1010.71 1009.31 1008.78 1009.20 1009.06 1008.24 1007.20 1006.48 1005.96 1004.68 1003.46 1002.77 1002.59 1004.42 1003.95 1003.87 1004.20 1004.16 1004.39 1005.40 1006.03 1006.25 1006.72 1007.65 1008.43 1010.01 1010.79
1017.11 1016.96 1016.92 1016.84 1016.74 1016.63 1016.47 1016.18 1015.85 1015.64 1015.38 1015.04 1014.76 1014.56 1014.27 1013.87 1012.39 1010.37 1008.91 1008.95 1009.06 1009.19 1008.70 1007.75 1006.75 1006.13 1005.27 1003.97 1002.88 1002.42 1002.26 1002.87 1002.75 1003.24 1003.96 1003.58 1004.43 1005.31 1005.92 1006.71 1007.27 1008.35 1009.23 1009.99 1010.49
1017.02 1016.85 1016.83 1016.73 1016.66 1016.54 1016.32 1016.01 1015.76 1015.53 1015.15 1014.77 1014.60 1014.44 1014.08 1013.72 1011.59 1008.56 1008.90 1008.94 1008.98 1009.02 1008.59 1007.64 1006.22 1005.66 1004.64 1003.41 1002.59 1002.26 1002.17 1002.34 1002.80 1003.34 1003.36 1003.49 1004.54 1004.97 1005.96 1007.35 1007.44 1008.33 1008.92 1009.65 1010.03
1016.92 1016.72 1016.69 1016.61 1016.57 1016.34 1016.10 1015.85 1015.55 1015.26 1014.88 1014.57 1014.50 1014.19 1013.66 1012.94 1009.67 1008.41 1008.79 1008.78 1008.97 1008.76 1008.09 1006.67 1005.78 1005.01 1004.13 1002.99 1002.62 1002.75 1002.48 1002.89 1002.81 1003.31 1003.51 1003.56 1004.40 1004.71 1006.82 1008.56 1006.92 1007.51 1008.57 1008.76 1008.65
1016.81 1016.59 1016.56 1016.46 1016.33 1016.10 1015.86 1015.62 1015.30 1015.03 1014.65 1014.35 1014.44 1014.01 1012.71 1010.94 1008.03 1008.13 1008.40 1008.72 1008.67 1008.43 1007.41 1005.88 1005.15 1004.19 1003.32 1002.58 1002.75 1003.02 1002.51 1002.99 1003.37 1003.66 1003.55 1003.61 1004.25 1005.51 1007.62 1007.60 1006.79 1007.16 1007.83 1007.73 1007.75
1016.62 1016.44 1016.42 1016.26 1016.11 1015.89 1015.72 1015.45 1015.12 1014.81 1014.42 1014.13 1014.24 1013.93 1012.43 1009.04 1006.73 1007.37 1007.66 1007.74 1007.61 1007.01 1005.73 1004.67 1004.12 1003.53 1002.94 1002.81 1003.00 1002.83 1002.97 1003.19 1003.47 1003.57 1003.67 1004.20 1004.15 1004.93 1006.00 1006.58 1006.51 1006.65 1007.02 1006.91 1007.29
1016.40 1016.33 1016.20 1016.05 1015.91 1015.75 1015.59 1015.17 1014.82 1014.46 1014.07 1013.86 1013.98 1013.13 1010.79 1007.70 1006.37 1006.67 1006.84 1006.49 1006.08 1005.63 1005.05 1004.68 1004.14 1003.81 1003.35 1003.15 1003.35 1003.33 1003.51 1003.28 1003.39 1003.66 1004.14 1004.61 1004.67 1004.70 1005.62 1006.15 1006.19 1006.45 1006.77 1007.18 1007.90
1016.28 1016.11 1015.99 1015.78 1015.71 1015.54 1015.30 1014.86 1014.51 1014.05 1013.67 1013.57 1013.60 1012.38 1008.95 1006.46 1006.32 1006.31 1006.14 1005.89 1006.00 1005.76 1005.54 1005.22 1004.93 1004.47 1003.67 1003.55 1003.71 1003.49 1003.24 1002.44 1002.72 1003.67 1004.11 1005.04 1004.77 1004.16 1005.50 1005.83 1006.06 1006.06 1006.33 1007.23 1008.28
1016.10 1015.92 1015.73 1015.58 1015.47 1015.36 1015.00 1014.58 1014.06 1013.73 1013.30 1013.31 1012.85 1011.09 1007.36 1006.84 1006.33 1005.72 1005.78 1005.33 1005.56 1005.66 1005.53 1005.69 1005.39 1004.73 1004.16 1003.90 1003.45 1003.16 1002.48 1002.47 1002.73 1003.44 1004.03 1004.55 1004.69 1004.79 1005.21 1005.45 1005.85 1005.94 1006.03 1006.96 1009.69
1015.93 1015.70 1015.48 1015.38 1015.32 1015.15 1014.68 1014.32 1013.36 1013.82 1011.93 1011.71 1010.65 1009.73 1007.02 1006.06 1005.87 1006.03 1005.72 1005.79 1005.56 1005.41 1005.36 1005.40 1005.08 1004.43 1003.83 1003.42 1003.22 1003.18 1002.93 1002.79 1003.27 1003.60 1004.29 1004.61 1004.56 1004.32 1004.34 1005.04 1005.42 1005.85 1006.15 1006.79 1008.96
1015.74 1015.49 1015.30 1015.16 1015.14 1015.03 1014.30 1013.30 1013.27 1012.05 1010.68 1008.71 1007.47 1007.02 1005.91 1005.99 1006.23 1006.06 1005.65 1005.80 1005.60 1005.53 1005.12 1004.67 1004.34 1003.67 1003.60 1003.86 1004.14 1004.16 1003.93 1003.83 1003.66 1003.74 1004.45 1004.97 1004.97 1004.81 1004.43 1004.83 1005.17 1005.68 1006.22 1006.92 1008.37
1015.63 1015.31 1015.06 1014.99 1014.95 1015.02 1014.92 1012.16 1009.19 1008.19 1008.07 1007.70 1006.60 1006.20 1006.08 1005.80 1005.50 1005.18 1005.52 1005.58 1005.27 1005.02 1004.53 1004.15 1003.86 1003.93 1004.30 1004.77 1004.88 1004.78 1004.58 1004.34 1004.39 1004.41 1004.81 1005.02 1004.88 1004.62 1004.57 1004.99 1005.80 1006.31 1006.57 1006.91 1008.60
1015.53 1015.20 1014.93 1014.88 1014.83 1014.74 1012.45 1010.08 1008.28 1007.74 1007.16 1005.93 1006.00 1005.73 1005.66 1005.78 1004.84 1004.89 1005.31 1004.89 1004.82 1004.50 1004.02 1004.05 1004.56 1004.70 1004.94 1004.87 1005.20 1005.18 1004.85 1005.26 1005.82 1005.66 1005.41 1004.93 1004.35 1003.87 1005.23 1006.08 1006.65 1007.10 1007.15 1007.42 1008.31
1015.47 1015.07 1014.84 1014.79 1014.60 1011.05 1009.84 1008.78 1007.93 1007.94 1007.12 1005.31 1005.35 1005.02 1004.99 1005.21 1005.01 1005.09 1005.24 1005.10 1004.58 1004.14 1004.09 1004.13 1004.73 1005.21 1005.43 1005.32 1005.77 1005.86 1006.31 1006.48 1006.29 1006.09 1005.50 1005.11 1004.63 1004.84 1005.79 1006.46 1007.18 1007.66 1007.98 1008.10 1008.25
1015.40 1014.94 1014.65 1014.85 1013.00 1009.64 1008.53 1008.11 1007.87 1008.33 1006.17 1004.54 1004.57 1004.22 1004.76 1005.00 1004.83 1005.37 1005.80 1005.61 1004.97 1004.35 1004.77 1004.46 1004.83 1005.53 1005.55 1006.05 1006.62 1006.69 1006.92 1006.59 1006.41 1006.18 1005.89 1005.06 1005.16 1005.42 1006.05 1006.65 1007.26 1007.75 1007.83 1008.36 1008.90
1015.27 1014.86 1014.48 1013.66 1012.49 1009.36 1008.42 1008.44 1008.66 1007.99 1005.01 1004.05 1004.18 1004.60 1004.57 1004.88 1004.87 1005.41 1005.75 1005.90 1005.49 1004.95 1005.37 1005.08 1005.56 1006.01 1006.07 1006.53 1006.90 1007.09 1006.70 1006.34 1005.92 1005.64 1005.49 1005.43 1005.94 1005.89 1006.60 1007.43 1007.72 1008.04 1008.61 1008.91 1009.00
1014.94 1014.48 1014.36 1011.93 1009.76 1008.41 1008.41 1008.48 1008.09 1006.45 1004.48 1003.90 1004.03 1004.45 1004.55 1004.66 1004.88 1005.57 1005.73 1005.95 1005.75 1005.86 1005.39 1005.44 1005.75 1006.40 1007.13 1006.66 1006.39 1006.99 1007.30 1006.59 1005.92 1005.51 1005.45 1006.01 1006.10 1006.68 1007.20 1007.68 1008.00 1008.49 1008.86 1009.11 1009.41
1014.35 1014.11 1012.19 1011.38 1009.80 1009.04 1009.01 1008.48 1007.29 1005.40 1004.09 1003.80 1003.82 1004.10 1004.32 1004.45 1004.94 1005.56 1005.60 1005.66 1006.02 1005.93 1005.85 1005.81 1006.17 1006.55 1007.22 1007.31 1007.72 1007.78 1008.11 1008.12 1008.10 1007.50 1006.63 1006.13 1005.83 1007.31 1007.88 1008.39 1008.67 1009.10 1009.49 1009.70 1009.65
1013.67 1012.46 1011.47 1010.44 1009.96 1009.76 1009.26 1007.96 1006.44 1005.23 1004.40 1004.27 1004.47 1003.94 1004.15 1004.23 1004.95 1005.46 1005.90 1005.52 1005.75 1006.35 1006.75 1006.35 1006.58 1006.98 1007.47 1007.79 1008.15 1008.22 1008.47 1009.14 1009.42 1008.78 1007.97 1006.54 1007.11 1007.92 1008.12 1008.23 1008.71 1009.09 1009.30 1009.72 1010.08
1014.39 1011.72 1009.63 1009.34 1009.81 1009.92 1009.21 1007.61 1006.32 1006.00 1005.83 1005.53 1004.89 1004.65 1004.14 1004.21 1005.04 1005.40 1005.54 1005.92 1006.26 1007.10 1007.66 1007.76 1007.76 1007.09 1007.87 1007.90 1008.13 1008.76 1009.11 1009.17 1009.37 1009.16 1008.54 1007.56 1007.41 1007.90 1008.25 1008.65 1009.11 1009.54 1009.83 1010.00 1010.04
1014.14 1010.93 1009.28 1009.01 1009.96 1009.81 1008.59 1007.28 1006.37 1006.06 1006.50 1006.57 1005.84 1005.09 1004.63 1004.29 1004.76 1005.28 1005.57 1006.07 1006.85 1007.60 1008.29 1008.61 1008.73 1008.39 1007.71 1008.39 1008.44 1008.64 1008.72 1009.07 1009.60 1010.21 1009.64 1009.07 1008.34 1008.45 1008.93 1009.18 1009.55 1010.06 1010.34 1010.32 1010.48
1013.70 1010.58 1009.21 1009.25 1009.69 1009.21 1008.27 1007.30 1007.45 1006.57 1006.88 1006.96 1006.60 1006.02 1005.30 1005.15 1005.21 1005.47 1006.36 1007.11 1008.18 1008.15 1008.78 1009.53 1009.55 1009.21 1008.53 1008.15 1008.48 1008.82 1009.15 1009.59 1010.15 1010.52 1010.08 1009.91 1009.02 1008.73 1008.76 1009.02 1009.38 1010.20 1010.48 1010.94 1011.56
1013.99 1010.60 1009.32 1009.34 1008.97 1008.28 1007.82 1007.08 1007.39 1007.35 1007.12 1006.97 1006.83 1006.74 1006.35 1006.14 1006.10 1006.17 1007.45 1009.05 1009.26 1009.12 1010.09 1010.14 1010.15 1009.86 1009.16 1008.48 1009.05 1009.11 1009.06 1009.69 1010.28 1010.95 1010.93 1010.40 1009.33 1008.82 1008.70 1009.17 1009.75 1010.12 1010.71 1010.99 1011.17
1014.80 1011.07 1009.36 1009.30 1009.01 1008.62 1007.87 1007.07 1007.26 1007.56 1007.51 1007.22 1007.12 1006.83 1006.84 1006.93 1006.73 1006.96 1007.71 1009.15 1009.81 1010.31 1011.22 1011.18 1010.89 1010.67 1010.17 1009.42 1009.19 1009.04 1009.09 1009.42 1009.71 1010.05 1010.29 1009.86 1009.14 1008.69 1008.81 1009.45 1010.16 1010.57 1010.92 1011.08 1011.37
1014.77 1011.45 1010.16 1008.97 1008.89 1008.72 1008.21 1007.56 1007.34 1007.16 1007.75 1007.68 1007.70 1007.52 1007.38 1007.35 1007.08 1007.20 1007.71 1009.22 1010.08 1011.10 1011.72 1011.70 1011.32 1010.97 1010.38 1009.89 1009.41 1009.22 1009.08 1009.20 1009.32 1009.46 1009.47 1009.41 1009.17 1009.01 1009.32 1009.85 1010.38 1010.77 1011.11 1011.34 1011.60
1014.48 1011.92 1010.83 1009.91 1009.35 1008.95 1008.52 1008.14 1007.52 1007.08 1007.21 1007.63 1007.74 1007.63 1007.67 1007.64 1007.57 1007.32 1007.66 1008.36 1009.54 1011.05 1011.29 1011.72 1011.69 1011.40 1010.86 1010.35 1009.80 1009.00 1008.90 1009.06 1008.95 1008.96 1009.05 1009.23 1009.26 1009.36 1009.71 1010.00 1010.35 1010.76 1011.12 1011.53 1012.00
1013.78 1012.99 1012.70 1010.51 1009.86 1009.53 1008.67 1008.36 1008.17 1007.81 1007.52 1007.79 1008.02 1007.88 1007.89 1008.09 1008.10 1008.02 1008.35 1008.76 1009.89 1011.05 1011.22 1011.54 1011.95 1011.78 1011.08 1010.56 1009.73 1009.20 1008.92 1008.59 1008.59 1008.23 1008.77 1009.14 1009.40 1009.51 1009.93 1010.26 1010.72 1011.03 1011.16 1011.85 1012.52
Wind_Speed
7 7 8 8 8 8 9 10 10 11 10 11 12 12 12 14 20 8 13 10 8 3 4 12 18 16 18 21 19 14 6 6 12 15 10 7 17 13 10 9 15 14 22 18 16
7 8 8 9 9 9 9 10 11 11 11 12 12 11 11 12 13 16 8 7 8 2 8 14 14 15 16 19 9 10 5 9 5 20 8 10 12 10 12 13 15 15 19 17 14
8 8 9 9 9 9 9 10 11 11 12 12 12 11 11 11 10 9 5 7 6 2 11 19 17 16 19 17 13 8 6 9 7 13 9 13 13 6 12 8 9 17 17 16 14
8 8 9 9 9 9 10 10 11 12 12 13 12 12 11 7 3 8 9 7 3 8 14 13 11 17 18 17 6 6 2 7 10 9 4 7 12 7 19 8 13 20 16 15 17
8 8 9 9 9 9 10 11 12 12 13 13 11 11 11 8 4 9 7 7 9 12 17 15 14 14 17 8 5 7 6 4 3 5 10 5 1 5 22 15 9 19 17 17 17
8 8 9 9 10 10 11 12 12 13 13 13 9 13 7 14 13 12 12 13 14 18 20 12 12 10 11 2 7 5 5 2 1 8 5 8 5 8 11 22 7 15 14 16 14
8 8 9 9 10 10 12 11 12 13 14 13 8 7 9 15 8 8 7 14 9 10 6 4 13 6 13 4 4 9 8 10 9 5 6 2 12 8 12 8 10 9 10 13 8
8 9 9 9 10 11 12 12 13 15 16 12 6 9 10 7 5 8 11 6 5 4 8 7 9 12 9 12 4 13 15 13 13 7 6 2 11 10 18 9 8 13 14 12 23
8 8 9 10 10 11 12 13 15 15 14 9 7 8 13 6 9 10 8 8 7 5 7 6 10 13 15 9 14 15 12 12 9 8 1 8 7 8 10 10 9 10 13 11 15
9 8 9 9 10 11 12 9 12 15 10 11 11 9 11 11 10 3 9 6 6 8 7 9 11 14 13 13 7 13 8 8 1 2 7 7 12 12 14 12 9 9 12 10 14
10 8 9 9 9 8 10 6 7 7 12 14 9 15 5 1 2 9 12 8 10 8 12 15 11 16 1 12 11 10 10 9 9 1 2 8 12 15 6 8 4 10 9 12 5
12 9 8 8 7 5 5 7 11 10 10 18 12 6 3 3 9 9 4 9 12 12 16 11 13 9 9 8 9 9 11 10 12 12 6 11 15 14 11 4 7 11 11 9 11
12 9 8 7 5 3 12 18 7 7 8 15 12 12 8 10 9 10 10 11 9 14 6 13 12 9 5 7 4 11 11 9 12 15 14 18 19 20 13 7 7 7 10 8 9
14 10 7 4 3 11 16 9 8 4 6 13 11 7 8 10 3 5 4 8 4 10 10 8 12 5 4 10 6 8 12 11 13 12 12 15 11 13 9 3 4 0 4 9 11
16 12 8 9 13 8 6 6 7 2 7 18 15 7 10 11 10 10 0 7 13 6 5 5 5 5 7 11 5 11 12 14 12 12 13 17 7 8 7 9 8 10 1 3 6
17 14 9 7 7 12 4 0 5 7 5 10 11 9 12 13 6 6 6 7 11 4 7 5 8 4 8 6 2 10 13 19 17 14 11 3 3 12 9 7 7 9 6 9 9
19 15 6 9 10 2 6 7 6 11 7 10 13 11 14 11 8 6 6 6 7 6 9 8 8 9 4 10 7 12 12 10 2 4 4 7 7 9 10 8 9 8 9 3 2
24 14 10 9 14 6 6 7 9 16 14 3 9 12 13 11 8 7 7 9 6 11 3 12 6 2 5 5 7 13 6 7 8 11 15 16 3 9 12 10 8 4 6 10 8
26 5 6 10 12 5 8 10 12 12 8 4 6 8 13 12 5 9 8 10 4 4 8 9 10 5 1 2 2 10 7 11 7 15 11 11 17 12 5 8 6 1 3 3 5
7 9 11 12 3 6 7 15 12 4 7 5 11 8 10 12 11 7 11 9 4 3 7 7 5 5 7 5 4 5 4 4 5 6 10 13 7 8 9 10 10 12 12 13 4
4 6 7 6 5 6 9 13 12 4 2 4 10 15 13 11 11 10 5 9 5 8 1 6 5 9 9 9 4 4 9 5 1 5 8 8 2 10 6 5 9 11 11 10 8
5 7 8 5 7 8 11 17 2 3 7 8 8 13 9 10 10 12 9 7 5 2 2 3 3 8 17 10 2 7 6 6 4 8 10 9 9 6 4 6 5 3 7 7 7
6 9 5 6 9 11 15 13 3 7 9 7 9 10 11 9 5 7 14 5 3 2 4 2 4 6 7 4 8 8 1 3 6 4 10 9 8 5 9 10 11 8 5 7 4
6 4 5 6 10 14 15 11 9 9 9 10 8 10 8 7 10 5 12 6 6 8 5 3 4 8 10 15 15 10 12 11 11 5 10 13 16 16 13 11 10 10 11 10 10
5 7 4 5 11 13 13 11 12 9 8 10 8 15 9 9 11 11 7 9 6 6 2 2 6 10 13 17 12 16 15 14 15 14 13 12 14 12 8 9 7 5 5 7 9
6 6 7 9 7 9 12 13 13 10 9 10 10 14 14 12 12 9 10 13 7 8 6 5 5 9 13 14 16 19 10 15 18 15 14 12 13 8 7 6 9 9 8 8 11
6 4 4 9 11 9 10 12 14 13 7 9 8 8 14 1 8 7 8 10 4 9 7 6 6 9 11 14 13 8 15 10 14 7 6 8 10 12 10 9 8 11 7 8 10
Wind_Direction
300 305 306 306 306 305 305 308 311 312 312 310 311 313 320 319 303 223 248 255 175 99 320 270 268 256 265 265 270 274 315 126 130 143 153 172 98 96 124 134 62 109 99 121 135
297 301 303 303 301 302 303 307 311 310 307 307 304 311 317 321 297 261 175 126 122 115 252 245 245 246 254 258 266 275 290 236 65 111 196 138 108 132 132 108 104 98 112 130 139
295 298 299 298 297 297 304 307 304 301 303 304 305 311 308 315 271 241 163 176 144 223 261 264 252 228 247 258 258 284 23 25 79 28 347 100 100 169 82 102 122 133 137 144 153
293 296 296 295 294 302 304 302 301 300 300 300 307 311 301 250 325 103 176 145 147 260 262 251 254 232 247 259 260 290 18 351 49 30 356 308 137 200 98 274 213 142 151 160 180
291 295 293 293 296 300 301 299 299 297 297 298 310 316 316 246 173 132 141 160 203 226 241 235 218 226 242 232 59 267 286 107 50 323 297 64 151 129 130 214 208 138 162 182 197
294 295 288 292 294 298 293 292 293 292 292 293 310 309 256 276 112 154 203 180 232 219 248 253 224 233 305 22 249 6 343 265 236 256 353 326 275 195 170 208 159 147 177 204 198
300 286 285 288 291 290 287 291 291 290 287 291 304 290 269 273 165 166 200 225 220 275 263 312 339 279 318 204 286 294 269 227 219 240 289 89 289 205 344 127 167 178 218 233 194
292 286 284 289 286 289 288 291 288 287 289 289 283 273 269 115 217 200 195 199 213 250 301 336 306 298 304 322 259 256 251 260 182 140 165 181 296 282 203 125 240 207 221 220 11
297 288 286 285 287 285 288 291 286 288 274 273 258 218 266 130 230 218 217 236 180 251 255 302 268 280 280 246 250 229 271 215 167 147 216 192 288 104 175 198 228 267 247 231 141
310 294 290 285 284 290 301 271 295 310 239 246 259 271 254 188 207 261 253 294 256 257 254 232 243 244 232 238 299 344 244 23 313 79 138 260 302 293 193 210 227 267 274 266 127
326 303 287 283 287 317 318 241 223 209 230 231 210 238 98 130 163 224 224 212 249 247 255 223 246 241 112 24 0 335 325 306 299 85 11 285 292 300 307 247 324 296 275 282 156
334 313 298 289 302 324 277 251 276 338 211 228 273 279 329 262 207 221 150 228 219 252 222 248 238 60 33 20 340 321 296 310 336 5 332 280 274 283 287 69 353 327 303 273 141
337 321 305 303 319 240 231 250 317 304 269 218 215 221 182 218 229 161 214 227 267 243 234 263 40 50 1 333 326 305 0 10 328 312 293 265 267 242 81 52 18 329 328 336 167
342 332 313 298 258 226 225 236 259 3 268 173 200 239 166 228 221 54 303 314 253 268 220 278 84 358 302 267 52 309 13 326 304 301 294 334 299 97 109 108 144 122 305 309 311
346 338 309 224 325 257 81 267 6 243 269 141 180 145 178 216 112 179 283 275 279 302 303 51 103 209 258 58 37 324 325 283 269 270 281 268 244 142 166 93 42 32 7 249 280
342 339 327 194 226 270 227 231 239 234 250 162 139 194 216 209 184 115 204 251 310 322 228 3 50 347 3 15 246 288 300 310 276 249 243 153 306 96 90 57 41 64 27 1 342
335 326 287 315 273 67 319 231 218 245 146 147 181 194 212 193 180 197 198 200 220 218 224 206 181 106 329 286 192 358 358 321 281 278 189 194 258 83 107 79 59 41 18 22 304
326 319 227 251 290 310 278 243 254 228 247 96 180 195 202 179 188 209 198 218 218 296 222 245 124 121 131 29 357 302 341 334 339 318 324 310 251 110 90 85 81 54 45 344 352
311 214 240 240 253 306 265 234 218 287 339 120 241 219 201 186 234 171 237 263 157 196 354 342 71 110 89 348 4 352 338 345 299 270 255 285 91 96 122 137 155 120 349 281 276
318 287 221 203 176 256 251 259 289 45 346 5 292 216 249 201 173 258 198 224 123 62 28 339 317 315 152 249 205 281 343 332 224 300 322 334 351 77 41 38 16 356 347 328 117
261 252 104 163 167 241 240 239 237 153 312 248 274 277 250 258 204 220 224 120 103 129 256 313 319 296 293 16 283 302 311 255 347 288 298 298 46 83 54 15 14 7 340 349 18
300 267 130 178 203 232 243 248 308 328 180 247 270 291 304 289 281 197 73 74 50 76 238 67 354 309 315 259 236 314 312 346 314 301 308 322 302 58 20 32 20 72 352 27 359
278 262 153 212 229 228 225 252 87 233 259 236 236 254 286 292 313 278 93 88 59 114 32 70 231 275 294 228 61 301 17 258 226 274 275 280 283 118 16 44 16 11 4 339 321
279 254 205 206 258 293 290 207 228 213 271 260 268 269 237 261 263 297 126 104 81 53 29 3 287 273 281 301 315 294 304 293 292 249 270 278 311 320 351 37 2 3 0 349 349
248 255 337 216 223 247 263 289 227 193 201 246 241 258 241 236 249 222 122 123 136 124 199 271 259 271 280 287 298 296 286 292 289 282 275 273 283 315 24 16 351 335 315 316 345
293 314 345 269 304 290 236 256 271 256 217 219 226 259 234 254 258 286 264 161 194 162 209 181 275 285 277 286 276 269 297 288 277 267 279 284 294 43 9 344 352 355 337 350 360
268 286 263 295 237 268 266 234 250 268 282 237 326 251 266 288 358 7 18 94 210 151 200 214 253 281 264 280 290 282 274 293 333 270 280 297 302 348 336 343 354 320 323 33 356